NR0A-4 Weather Reports


time (UTC)temp
C
wind
direction
speed
KPH
gust
KPH
rain 1hr
cm
rain 24hr
cm
rain mn
cm
humidity
%
barometer
mb
20260507033504 8 316 0.0 0.0 0.00 0.00 0.00 40 1014.2
20260507033004 8 316 0.0 0.0 0.00 0.00 0.00 41 1014.2
20260507032504 8 316 0.0 0.0 0.00 0.00 0.00 42 1014.2
20260507032004 8 316 0.0 0.0 0.00 0.00 0.00 41 1014.2
20260507031504 8 316 0.0 0.0 0.00 0.00 0.00 41 1014.3
20260507031004 8 316 0.0 0.0 0.00 0.00 0.00 39 1014.3
20260507030504 9 316 0.0 0.0 0.00 0.00 0.00 38 1014.3
20260507030004 9 316 0.0 0.0 0.00 0.00 0.00 37 1014.3
20260507025504 9 316 0.0 0.0 0.00 0.00 0.00 38 1014.3
20260507025004 9 316 0.0 0.0 0.00 0.00 0.00 38 1014.4
20260507024504 9 316 0.0 0.0 0.00 0.00 0.00 38 1014.4
20260507024004 9 316 0.0 0.0 0.00 0.00 0.00 39 1014.3
20260507023504 9 316 0.0 0.0 0.00 0.00 0.00 39 1014.3
20260507023005 9 316 0.0 0.0 0.00 0.00 0.00 40 1014.3
20260507022504 10 316 0.0 0.0 0.00 0.00 0.00 39 1014.3
20260507022004 10 316 0.0 0.0 0.00 0.00 0.00 38 1014.3
20260507021504 10 316 0.0 0.0 0.00 0.00 0.00 37 1014.2
20260507021005 10 314 0.0 0.0 0.00 0.00 0.00 37 1014.3
20260507020504 10 317 0.0 0.0 0.00 0.00 0.00 37 1014.2
20260507020004 10 317 0.0 0.0 0.00 0.00 0.00 35 1014.2
20260507015505 10 309 0.0 0.0 0.00 0.00 0.00 38 1014.1
20260507015004 11 309 0.0 0.0 0.00 0.00 0.00 37 1014.2
20260507014504 11 309 0.0 0.0 0.00 0.00 0.00 39 1014.2
20260507014004 11 309 0.0 1.6 0.00 0.00 0.00 36 1014.2
20260507013504 11 285 0.0 0.0 0.00 0.00 0.00 35 1014.2
20260507013005 12 285 0.0 0.0 0.00 0.00 0.00 36 1014.2
20260507012504 12 279 0.0 3.2 0.00 0.00 0.00 34 1014.2
20260507012004 12 287 0.0 4.8 0.00 0.00 0.00 31 1014.2
20260507011504 12 277 1.6 4.8 0.00 0.00 0.00 31 1014.2
20260507011004 12 296 1.6 3.2 0.00 0.00 0.00 33 1014.2
20260507010504 13 262 0.0 0.0 0.00 0.00 0.00 32 1014.2
20260507010004 13 283 0.0 3.2 0.00 0.00 0.00 32 1014.2
20260507005504 13 281 0.0 0.0 0.00 0.00 0.00 31 1014.3
20260507005004 13 221 0.0 1.6 0.00 0.00 0.00 31 1014.3
20260507004504 13 249 0.0 0.0 0.00 0.00 0.00 31 1014.3
20260507004004 13 259 1.6 3.2 0.00 0.00 0.00 31 1014.3
20260507003504 13 275 1.6 4.8 0.00 0.00 0.00 29 1014.3
20260507003004 13 281 1.6 4.8 0.00 0.00 0.00 30 1014.3
20260507002504 14 292 3.2 8.0 0.00 0.00 0.00 30 1014.3
20260507002004 14 222 1.6 12.9 0.00 0.00 0.00 29 1014.4
20260507001504 15 212 3.2 11.3 0.00 0.00 0.00 27 1014.4
20260507001004 15 260 3.2 12.9 0.00 0.00 0.00 29 1014.5
20260507000504 15 272 1.6 4.8 0.00 0.00 0.00 28 1014.5
20260507000004 15 267 1.6 14.5 0.00 0.00 0.00 28 1014.6
20260506235504 15 207 6.4 14.5 0.00 0.00 0.00 27 1014.6
20260506235004 15 206 4.8 12.9 0.00 0.00 0.00 27 1014.6
20260506234505 15 197 8.0 19.3 0.00 0.00 0.00 27 1014.7
20260506234004 15 207 9.7 20.9 0.00 0.00 0.00 27 1014.7
20260506233504 15 223 8.0 16.1 0.00 0.00 0.00 28 1014.7
20260506233004 15 209 4.8 19.3 0.00 0.00 0.00 27 1014.8
20260506232504 15 218 4.8 11.3 0.00 0.00 0.00 28 1014.9
20260506232004 15 259 4.8 9.7 0.00 0.00 0.00 29 1014.9
20260506231504 15 245 3.2 8.0 0.00 0.00 0.00 28 1015.0
20260506231004 15 225 4.8 11.3 0.00 0.00 0.00 27 1014.9
20260506230504 15 243 4.8 16.1 0.00 0.00 0.00 28 1014.9
20260506230004 15 211 8.0 19.3 0.00 0.00 0.00 25 1015.0
20260506225504 15 208 8.0 16.1 0.00 0.00 0.00 28 1015.0
20260506225005 15 342 1.6 9.7 0.00 0.00 0.00 28 1015.0
20260506224504 15 317 3.2 9.7 0.00 0.00 0.00 29 1015.0
20260506224004 15 264 4.8 8.0 0.00 0.00 0.00 29 1015.2
20260506223504 15 217 1.6 8.0 0.00 0.00 0.00 30 1015.2
20260506223004 15 204 3.2 14.5 0.00 0.00 0.00 29 1015.3
20260506222504 15 273 3.2 4.8 0.00 0.00 0.00 28 1015.3
20260506222004 16 250 3.2 14.5 0.00 0.00 0.00 29 1015.4
20260506221504 16 257 9.7 24.1 0.00 0.00 0.00 28 1015.3
20260506221004 15 306 9.7 19.3 0.00 0.00 0.00 29 1015.3
20260506220504 15 279 4.8 12.9 0.00 0.00 0.00 29 1015.4
20260506220004 14 215 3.2 9.7 0.00 0.00 0.00 29 1015.5
20260506215504 14 250 1.6 9.7 0.00 0.00 0.00 28 1015.6
20260506215006 14 228 4.8 8.0 0.00 0.00 0.00 28 1015.6
20260506214504 15 181 4.8 11.3 0.00 0.00 0.00 27 1015.7
20260506214004 15 225 3.2 19.3 0.00 0.00 0.00 30 1015.8
20260506213504 15 228 4.8 12.9 0.00 0.00 0.00 28 1015.8
20260506213005 15 223 4.8 12.9 0.00 0.00 0.00 27 1015.8
20260506212504 15 219 3.2 14.5 0.00 0.00 0.00 26 1015.9
20260506212004 15 215 8.0 14.5 0.00 0.00 0.00 28 1016.0
20260506211504 15 219 4.8 11.3 0.00 0.00 0.00 28 1016.0
20260506211005 15 280 9.7 19.3 0.00 0.00 0.00 28 1016.1
20260506210505 15 0 3.2 9.7 0.00 0.00 0.00 26 1016.1
20260506210004 14 272 4.8 11.3 0.00 0.00 0.00 28 1016.3
20260506205504 14 293 4.8 12.9 0.00 0.00 0.00 28 1016.3
20260506205004 15 269 8.0 19.3 0.00 0.00 0.00 27 1016.4
20260506204504 15 208 6.4 19.3 0.00 0.00 0.00 26 1016.4
20260506204005 15 199 3.2 9.7 0.00 0.00 0.00 28 1016.5
20260506203505 15 183 6.4 16.1 0.00 0.00 0.00 28 1016.5
20260506203005 15 223 6.4 16.1 0.00 0.00 0.00 27 1016.6
20260506202505 15 251 4.8 12.9 0.00 0.00 0.00 28 1016.5
20260506202004 15 190 9.7 16.1 0.00 0.00 0.00 29 1016.6
20260506201504 15 237 8.0 14.5 0.00 0.00 0.00 27 1016.7
20260506201004 15 204 11.3 25.7 0.00 0.00 0.00 28 1016.7
20260506200505 15 269 9.7 19.3 0.00 0.00 0.00 30 1016.8
20260506200004 15 262 4.8 20.9 0.00 0.00 0.00 28 1016.8
20260506195504 15 288 4.8 12.9 0.00 0.00 0.00 29 1016.7
20260506195004 15 280 8.0 16.1 0.00 0.00 0.00 27 1016.9
20260506194504 14 208 9.7 14.5 0.00 0.00 0.00 28 1017.0
20260506194005 15 291 6.4 19.3 0.00 0.00 0.00 30 1017.0
20260506193504 15 272 6.4 16.1 0.00 0.00 0.00 31 1017.0
20260506193004 14 223 8.0 19.3 0.00 0.00 0.00 32 1017.0
20260506192504 13 283 4.8 12.9 0.00 0.00 0.00 31 1017.1
20260506192005 14 223 4.8 19.3 0.00 0.00 0.00 30 1017.1
20260506191504 14 266 3.2 19.3 0.00 0.00 0.00 28 1017.2
20260506191004 15 246 9.7 22.5 0.00 0.00 0.00 30 1017.1
20260506190504 15 230 8.0 16.1 0.00 0.00 0.00 32 1017.2
20260506190005 14 206 9.7 24.1 0.00 0.00 0.00 31 1017.3
20260506185504 14 262 11.3 20.9 0.00 0.00 0.00 32 1017.3
20260506185005 13 270 4.8 12.9 0.00 0.00 0.00 31 1017.3
20260506184504 13 276 9.7 24.1 0.00 0.00 0.00 30 1017.5
20260506184004 13 282 3.2 12.9 0.00 0.00 0.00 33 1017.5
20260506183504 13 228 4.8 19.3 0.00 0.00 0.00 33 1017.6
20260506183005 13 276 9.7 16.1 0.00 0.00 0.00 30 1017.7
20260506182504 13 270 8.0 19.3 0.00 0.00 0.00 35 1018.0
20260506182005 13 256 8.0 19.3 0.00 0.00 0.00 34 1017.8
20260506181504 12 262 4.8 16.1 0.00 0.00 0.00 32 1017.9
20260506181005 12 273 9.7 19.3 0.00 0.00 0.00 31 1017.9
20260506180504 12 243 6.4 19.3 0.00 0.00 0.00 33 1018.1
20260506180005 13 286 8.0 19.3 0.00 0.00 0.00 33 1018.1
20260506175504 12 293 4.8 12.9 0.00 0.00 0.00 34 1018.1
20260506175005 12 260 9.7 16.1 0.00 0.00 0.00 32 1018.2
20260506174504 12 281 8.0 16.1 0.00 0.00 0.00 33 1018.2
20260506174004 12 282 3.2 9.7 0.00 0.00 0.00 35 1018.2
20260506173505 12 211 4.8 19.3 0.00 0.00 0.00 32 1018.2
20260506173005 12 270 4.8 14.5 0.00 0.00 0.00 32 1018.3
20260506172504 13 247 4.8 14.5 0.00 0.00 0.00 34 1018.3
20260506172004 12 250 6.4 19.3 0.00 0.00 0.00 36 1018.4
20260506171504 12 259 6.4 22.5 0.00 0.00 0.00 33 1018.3
20260506171005 12 267 9.7 19.3 0.00 0.00 0.00 34 1018.4
20260506170504 12 235 4.8 12.9 0.00 0.00 0.00 34 1018.5
20260506170004 12 212 6.4 14.5 0.00 0.00 0.00 33 1018.5
20260506165504 12 270 8.0 19.3 0.00 0.00 0.00 33 1018.6
20260506165005 12 227 1.6 11.3 0.00 0.00 0.00 36 1018.6
20260506164504 12 278 9.7 19.3 0.00 0.00 0.00 40 1018.8
20260506164004 12 293 4.8 16.1 0.00 0.00 0.00 35 1018.8
20260506163504 11 273 11.3 20.9 0.00 0.00 0.00 35 1018.9
20260506163005 11 259 4.8 9.7 0.00 0.00 0.00 38 1018.8
20260506162504 11 300 3.2 16.1 0.00 0.00 0.00 36 1018.8
20260506162005 11 273 3.2 19.3 0.00 0.00 0.00 35 1018.8
20260506161504 11 250 3.2 14.5 0.00 0.00 0.00 36 1018.6
20260506161005 11 214 4.8 20.9 0.00 0.00 0.00 35 1018.6
20260506160504 11 259 6.4 12.9 0.00 0.00 0.00 36 1018.6
20260506160004 11 282 11.3 24.1 0.00 0.00 0.00 34 1018.6
20260506155504 11 256 6.4 11.3 0.00 0.00 0.00 34 1018.6
20260506155004 11 279 9.7 19.3 0.00 0.00 0.00 36 1018.6
20260506154504 11 275 8.0 19.3 0.00 0.00 0.00 35 1018.5
20260506154004 11 233 4.8 16.1 0.00 0.00 0.00 38 1018.6
20260506153504 11 286 4.8 14.5 0.00 0.00 0.00 36 1018.7
20260506153004 11 271 3.2 12.9 0.00 0.00 0.00 38 1018.8
20260506152504 11 276 4.8 14.5 0.00 0.00 0.00 37 1018.6
20260506152005 11 288 12.9 20.9 0.00 0.00 0.00 37 1018.5
20260506151504 11 296 6.4 16.1 0.00 0.00 0.00 37 1018.6
20260506151004 11 227 1.6 4.8 0.00 0.00 0.00 41 1018.6
20260506150505 10 269 1.6 11.3 0.00 0.00 0.00 39 1018.7
20260506150004 10 272 3.2 11.3 0.00 0.00 0.00 41 1018.8
20260506145504 10 284 4.8 12.9 0.00 0.00 0.00 40 1018.7
20260506145004 10 226 8.0 16.1 0.00 0.00 0.00 41 1018.8
20260506144504 10 254 3.2 8.0 0.00 0.00 0.00 41 1018.8
20260506144005 10 226 4.8 12.9 0.00 0.00 0.00 42 1018.9
20260506143504 10 281 4.8 9.7 0.00 0.00 0.00 44 1018.9
20260506143004 9 226 4.8 11.3 0.00 0.00 0.00 43 1018.8
20260506142504 9 248 3.2 4.8 0.00 0.00 0.00 45 1018.7
20260506142004 8 285 4.8 11.3 0.00 0.00 0.00 43 1018.7
20260506141504 8 307 4.8 8.0 0.00 0.00 0.00 43 1018.7
20260506141004 8 272 3.2 9.7 0.00 0.00 0.00 45 1018.7
20260506140504 8 218 3.2 8.0 0.00 0.00 0.00 46 1018.7
20260506140004 8 236 3.2 9.7 0.00 0.00 0.00 47 1018.7
20260506135504 7 255 1.6 4.8 0.00 0.00 0.00 48 1018.7
20260506135004 7 225 1.6 4.8 0.00 0.00 0.00 53 1018.7
20260506134504 7 246 1.6 3.2 0.00 0.00 0.00 52 1018.7
20260506134004 6 200 1.6 4.8 0.00 0.00 0.00 58 1018.7
20260506133504 5 207 0.0 3.2 0.00 0.00 0.00 61 1018.7
20260506133004 5 183 1.6 4.8 0.00 0.00 0.00 63 1018.6
20260506132504 4 215 0.0 1.6 0.00 0.00 0.00 64 1018.7
20260506132005 3 215 1.6 3.2 0.00 0.00 0.00 66 1018.7
20260506131504 3 215 1.6 3.2 0.00 0.00 0.00 68 1018.6
20260506131004 2 215 0.0 0.0 0.00 0.00 0.00 69 1018.5
20260506130504 2 215 0.0 0.0 0.00 0.00 0.00 70 1018.5
20260506130005 2 215 0.0 0.0 0.00 0.00 0.00 71 1018.5
20260506125504 1 215 0.0 0.0 0.00 0.00 0.00 70 1018.4
20260506125005 1 215 0.0 1.6 0.00 0.00 0.00 70 1018.4
20260506124504 1 229 0.0 0.0 0.00 0.00 0.00 70 1018.3
20260506124004 1 229 0.0 0.0 0.00 0.00 0.00 70 1018.1
20260506123504 0 229 0.0 0.0 0.00 0.00 0.00 71 1018.1
20260506123004 0 229 0.0 0.0 0.00 0.00 0.00 71 1018.0
20260506122504 0 229 0.0 0.0 0.00 0.00 0.00 71 1018.0
20260506122004 0 229 0.0 0.0 0.00 0.00 0.00 70 1017.9
20260506121504 0 229 0.0 0.0 0.00 0.00 0.00 71 1017.8
20260506121004 0 229 0.0 0.0 0.00 0.00 0.00 71 1017.7
20260506120504 0 229 0.0 0.0 0.00 0.00 0.00 72 1017.7
20260506120004 0 229 0.0 1.6 0.00 0.00 0.00 71 1017.6
20260506115504 0 229 0.0 1.6 0.00 0.00 0.00 72 1017.6
20260506115004 0 214 0.0 0.0 0.00 0.00 0.00 72 1017.6
20260506114504 0 214 0.0 0.0 0.00 0.00 0.00 72 1017.5
20260506114005 0 236 0.0 0.0 0.00 0.00 0.00 71 1017.4
20260506113504 0 238 0.0 3.2 0.00 0.00 0.00 72 1017.3
20260506113004 0 240 1.6 3.2 0.00 0.00 0.00 72 1017.3
20260506112505 0 225 1.6 4.8 0.00 0.00 0.00 71 1017.2
20260506112005 0 237 1.6 4.8 0.00 0.00 0.00 71 1017.1
20260506111504 0 231 1.6 4.8 0.00 0.00 0.00 71 1017.0
20260506111004 0 230 1.6 4.8 0.00 0.00 0.00 71 1017.1
20260506110504 0 241 0.0 3.2 0.00 0.00 0.00 71 1017.0
20260506110004 0 242 0.0 3.2 0.00 0.00 0.00 72 1016.9
20260506105504 0 238 0.0 1.6 0.00 0.00 0.00 71 1016.9
20260506105004 0 238 1.6 3.2 0.00 0.00 0.00 71 1016.8
20260506104505 0 232 1.6 3.2 0.00 0.00 0.00 70 1016.8
20260506104004 0 275 0.0 3.2 0.00 0.00 0.00 69 1016.8
20260506103505 0 298 0.0 0.0 0.00 0.00 0.00 68 1016.9
20260506103004 0 298 0.0 0.0 0.00 0.00 0.00 68 1016.8
20260506102504 0 298 0.0 0.0 0.00 0.00 0.00 67 1016.8
20260506102004 0 298 0.0 0.0 0.00 0.00 0.00 67 1016.7
20260506101504 0 298 0.0 0.0 0.00 0.00 0.00 68 1016.7
20260506101004 0 298 0.0 0.0 0.00 0.00 0.00 68 1016.7
20260506100504 1 298 0.0 0.0 0.00 0.00 0.00 67 1016.7
20260506100005 1 298 0.0 0.0 0.00 0.00 0.00 66 1016.6
20260506095505 1 298 0.0 0.0 0.00 0.00 0.00 65 1016.6
20260506095004 1 298 0.0 0.0 0.00 0.00 0.00 64 1016.5
20260506094504 1 298 0.0 0.0 0.00 0.00 0.00 64 1016.5
20260506094004 1 298 0.0 0.0 0.00 0.00 0.00 63 1016.4
20260506093505 2 298 0.0 0.0 0.00 0.00 0.00 61 1016.5
20260506093004 2 302 0.0 1.6 0.00 0.00 0.00 61 1016.4
20260506092504 2 300 0.0 1.6 0.00 0.00 0.00 61 1016.3
20260506092005 2 297 0.0 0.0 0.00 0.00 0.00 61 1016.3
20260506091504 2 306 0.0 1.6 0.00 0.00 0.00 61 1016.2
20260506091004 2 300 0.0 3.2 0.00 0.00 0.00 61 1016.2
20260506090504 2 297 1.6 3.2 0.00 0.00 0.00 61 1016.2
20260506090004 2 303 0.0 3.2 0.00 0.00 0.00 61 1016.2
20260506085504 2 295 1.6 3.2 0.00 0.00 0.00 60 1016.3
20260506085004 2 295 1.6 3.2 0.00 0.00 0.00 61 1016.3
20260506084504 2 305 0.0 3.2 0.00 0.00 0.00 60 1016.2
20260506084004 2 299 0.0 3.2 0.00 0.00 0.00 60 1016.2
20260506083504 2 309 0.0 3.2 0.00 0.00 0.00 60 1016.2
20260506083005 2 300 0.0 1.6 0.00 0.00 0.00 61 1016.2
20260506082504 2 310 0.0 0.0 0.00 0.00 0.00 59 1016.2
20260506082004 2 311 0.0 1.6 0.00 0.00 0.00 60 1016.1
20260506081505 2 300 0.0 1.6 0.00 0.00 0.00 60 1016.2
20260506081005 3 284 1.6 3.2 0.00 0.00 0.00 60 1016.2
20260506080504 3 297 0.0 0.0 0.00 0.00 0.00 60 1016.2
20260506073504 3 270 0.0 0.0 0.00 0.00 0.00 58 1016.2
20260506073004 3 270 0.0 3.2 0.00 0.00 0.00 57 1016.2
20260506072503 3 276 1.6 3.2 0.00 0.00 0.00 56 1016.2
20260506072004 3 278 3.2 4.8 0.00 0.00 0.00 57 1016.3
20260506071504 3 273 1.6 4.8 0.00 0.00 0.00 56 1016.2
20260506071005 3 272 3.2 4.8 0.00 0.00 0.00 56 1016.1
20260506070504 3 269 0.0 0.0 0.00 0.00 0.00 57 1016.0
20260506062504 3 288 0.0 0.0 0.00 0.00 0.00 55 1015.9
20260506062004 4 288 0.0 0.0 0.00 0.00 0.00 55 1015.9
20260506061504 4 288 0.0 0.0 0.00 0.00 0.00 54 1015.8
20260506061005 4 288 0.0 0.0 0.00 0.00 0.00 54 1015.8
20260506060504 4 288 0.0 0.0 0.00 0.00 0.00 54 1015.9
20260506051004 12 293 0.0 0.0 0.00 0.00 0.00 35 1012.4
20260506050505 12 298 0.0 0.0 0.00 0.00 0.00 35 1012.4
20260506045004 12 292 0.0 3.2 0.00 0.00 0.00 35 1012.4
20260506044504 12 310 1.6 3.2 0.00 0.00 0.00 35 1012.4
20260506044004 12 299 0.0 4.8 0.00 0.00 0.00 35 1012.4
20260506043504 12 277 0.0 3.2 0.00 0.00 0.00 35 1012.4
20260506043004 12 285 1.6 1.6 0.00 0.00 0.00 35 1012.4
20260506042503 12 285 0.0 3.2 0.00 0.00 0.00 35 1012.4
20260506042004 12 299 0.0 0.0 0.00 0.00 0.00 35 1012.4
20260506041504 12 309 1.6 3.2 0.00 0.00 0.00 35 1012.4
20260506041004 12 304 1.6 3.2 0.00 0.00 0.00 35 1012.4
20260506040504 12 322 0.0 3.2 0.00 0.00 0.00 35 1012.4
20260506040004 12 313 0.0 3.2 0.00 0.00 0.00 35 1012.4
20260506035504 12 319 0.0 3.2 0.00 0.00 0.00 35 1012.4
20260506035004 12 295 0.0 4.8 0.00 0.00 0.00 35 1012.4
20260506034504 12 249 3.2 4.8 0.00 0.00 0.00 35 1012.4
20260506034004 12 271 1.6 4.8 0.00 0.00 0.00 35 1012.4